Theta_e
325 326 326 326 326 326 325 323 321 320 319 319 319 319 321 323 322 322 326 326 324 323 322 322 323 323 324 324 324 324 325 325 325 324 324 325 325 327 326 325 323 317 315 314 312 311 311 313 314 314 313 314 315 316 319 319 317 319 324 325 323 324 323 322 321 319 320 320 318 319 319 319 318 318 317 317 318 318 317 318 319 319 319 322 330 334 331 325
325 326 326 326 326 326 325 323 322 320 319 318 318 318 318 321 323 321 323 326 325 323 323 322 322 323 323 324 324 324 324 325 325 325 325 325 325 326 327 326 322 318 317 313 310 311 311 313 314 314 312 314 316 317 319 319 317 320 325 324 324 325 321 320 319 318 319 319 318 319 319 318 318 317 317 317 317 317 316 317 318 319 319 318 325 331 331 326
325 325 325 325 326 326 325 324 322 320 318 317 317 317 316 318 322 321 320 324 326 325 323 323 323 323 323 323 324 324 324 325 325 325 325 325 325 325 327 326 321 318 317 313 310 311 311 313 314 313 313 314 317 318 318 320 319 319 322 324 325 322 319 318 318 318 318 318 318 318 318 318 318 317 317 317 316 316 315 316 317 318 320 317 319 323 326 326
326 325 325 325 326 326 325 324 321 320 318 317 316 315 315 316 319 320 318 320 326 327 325 324 323 323 323 323 324 325 325 325 325 326 325 326 325 326 327 324 319 317 314 312 310 310 311 313 313 312 312 314 316 318 318 319 320 318 320 323 323 320 319 318 317 317 318 318 318 318 318 318 318 317 316 316 316 316 315 316 316 317 319 317 317 317 320 323
325 325 325 325 325 325 325 323 321 319 318 317 316 314 314 316 318 318 317 317 322 327 326 324 323 322 323 323 324 325 326 326 326 326 326 326 325 327 326 319 318 317 312 311 310 310 311 312 314 312 311 314 315 317 318 319 319 318 320 320 319 318 318 317 316 317 318 318 318 318 318 318 317 317 316 316 316 317 316 316 316 316 318 317 316 316 316 318
324 325 325 324 324 325 324 323 321 319 318 317 316 314 314 315 316 317 317 316 318 324 327 326 324 323 322 322 325 325 325 325 320 320 326 327 327 328 324 317 317 316 313 313 312 310 311 312 313 311 312 314 316 317 317 318 319 318 320 319 317 318 317 316 316 316 317 318 318 318 317 317 316 316 316 316 316 317 317 317 317 317 317 317 316 315 316 316
323 324 325 325 324 325 324 323 321 319 318 318 317 315 314 315 316 316 316 316 316 320 324 326 325 324 323 323 325 324 323 323 316 314 320 324 326 326 323 319 317 315 314 315 313 310 311 313 312 311 313 314 315 316 316 317 318 318 319 318 316 317 315 315 315 315 316 317 317 317 317 317 316 316 316 316 316 316 317 317 316 317 318 318 317 315 315 315
324 324 325 324 324 324 323 322 320 319 319 318 318 317 315 315 316 316 317 316 316 317 320 323 324 323 323 323 325 322 319 322 319 314 314 318 321 322 322 320 316 314 315 315 314 311 311 313 312 311 313 313 314 316 316 317 317 317 317 317 316 316 315 314 314 314 315 316 316 317 317 316 316 316 316 316 316 316 317 316 316 317 319 320 319 316 315 315
322 324 324 323 323 323 323 322 320 320 319 319 319 318 316 315 316 317 317 316 316 316 318 320 321 321 322 324 324 320 319 322 320 315 313 314 317 321 322 320 316 315 315 316 315 311 311 313 312 312 313 313 314 314 316 316 316 317 317 317 316 315 314 314 314 314 314 315 315 316 316 316 315 315 316 316 316 317 316 316 315 315 319 321 319 317 315 315
321 324 324 323 323 323 322 321 320 320 319 318 319 318 317 317 318 318 318 317 316 316 317 318 319 320 322 322 319 318 320 321 317 314 313 312 315 319 321 321 318 316 315 316 314 310 311 313 312 312 313 313 313 314 315 316 316 317 316 316 316 315 314 315 314 314 314 315 315 316 316 316 315 315 316 317 316 316 316 316 315 314 316 319 320 318 315 314
321 323 324 323 323 323 321 320 320 320 318 317 318 318 318 318 318 319 318 317 316 316 316 317 319 320 321 319 316 317 319 317 315 314 312 311 313 317 320 320 318 315 315 315 313 310 311 313 312 312 313 313 313 313 315 315 315 316 316 316 315 315 315 315 315 314 315 315 314 316 316 315 315 315 316 316 317 317 316 316 315 315 314 316 318 320 318 315
320 321 323 322 322 322 320 320 319 318 317 317 318 318 318 318 318 318 318 317 316 316 316 317 319 319 318 317 315 316 316 315 315 314 312 311 312 315 317 317 316 314 315 315 313 310 311 313 313 313 313 312 312 313 314 315 315 316 316 316 315 315 315 315 315 314 315 315 314 315 316 316 316 316 316 316 317 316 316 315 315 315 315 315 316 320 320 317
318 320 323 322 322 322 319 319 318 317 317 317 318 317 316 317 317 316 316 316 315 316 317 318 319 316 315 316 315 315 315 315 315 315 314 311 311 313 313 314 314 314 314 314 312 310 311 313 312 313 313 312 313 313 314 315 315 316 315 316 316 316 315 316 315 315 315 315 314 315 316 318 317 316 316 316 317 316 315 315 315 316 315 316 316 318 319 318
318 320 323 322 321 320 319 318 317 316 316 316 317 316 315 316 317 316 315 315 315 316 317 317 315 314 315 316 315 315 315 314 314 315 315 313 311 311 311 311 312 312 312 311 310 310 312 313 312 312 313 313 314 313 313 314 315 315 315 316 318 317 316 316 315 314 315 315 314 315 316 318 317 316 316 316 316 315 315 315 315 316 316 316 317 318 319 317
318 322 322 321 320 319 318 317 316 316 316 316 316 316 315 316 317 316 316 316 317 316 315 313 311 313 316 316 314 315 314 313 313 312 313 315 312 311 310 310 311 311 310 309 310 312 313 312 311 312 313 313 314 314 313 313 314 314 315 316 318 318 316 316 315 314 315 315 313 315 316 317 316 315 315 315 315 315 315 315 315 316 317 316 316 318 321 320
316 321 322 321 320 318 317 316 315 315 315 316 316 316 315 316 316 316 316 316 316 314 312 310 309 314 317 314 313 314 313 312 312 311 312 314 312 310 309 309 310 309 309 310 311 313 312 311 312 313 313 313 313 314 315 314 314 315 316 317 317 316 316 316 315 314 315 315 314 314 316 316 316 314 314 315 315 315 315 315 316 316 317 317 317 318 320 320
315 320 320 320 319 317 316 316 315 315 316 315 315 317 316 315 315 315 316 315 314 312 310 308 310 315 316 313 313 312 312 312 312 311 311 311 311 311 309 309 310 310 311 312 312 312 311 311 313 313 314 313 313 314 316 315 314 315 315 317 318 315 316 316 315 315 315 315 315 314 315 316 316 314 314 315 314 314 314 315 315 316 316 316 317 317 318 318
318 321 320 319 317 316 316 316 315 315 315 315 315 316 316 314 315 315 315 314 313 311 310 309 311 315 314 313 314 312 311 312 312 313 311 311 311 311 310 309 311 312 313 312 312 312 311 312 313 314 314 313 313 313 315 316 315 316 316 315 318 317 316 316 316 315 315 315 316 316 315 315 315 315 314 314 314 314 314 314 315 316 316 316 316 316 316 316
320 321 319 317 316 316 316 315 315 315 315 315 315 315 314 314 314 314 314 313 312 313 314 312 311 314 313 313 314 312 311 310 312 314 312 311 311 312 312 311 312 313 312 312 313 312 312 314 313 314 314 313 313 312 315 317 315 316 316 315 317 318 316 316 316 315 315 315 315 316 315 314 315 315 315 314 314 314 314 314 315 315 315 316 316 316 315 315
321 320 317 316 316 316 316 315 315 314 315 315 314 314 314 315 315 314 313 312 311 314 315 312 311 313 311 312 313 313 311 310 312 313 313 312 312 314 314 314 313 313 313 313 314 312 313 315 314 313 314 313 313 313 314 316 315 316 316 314 317 319 315 315 316 314 314 315 315 316 316 315 316 316 316 315 314 314 314 315 315 316 316 316 316 316 315 315
320 318 317 316 316 316 315 314 314 314 315 314 314 314 315 315 315 315 314 312 311 311 312 311 312 312 311 312 313 313 312 312 313 313 313 313 313 314 314 314 313 313 313 314 314 313 313 315 314 312 314 313 313 314 314 315 315 316 316 315 317 318 316 315 315 313 314 315 316 316 316 315 315 316 316 316 315 314 315 315 315 316 316 316 316 316 316 315
318 318 317 316 316 315 314 314 313 314 314 314 314 315 315 314 314 315 314 313 312 311 311 311 311 312 313 314 313 312 311 313 313 313 313 313 314 314 314 314 313 313 314 313 315 316 314 315 314 312 313 314 314 314 314 315 316 316 317 317 316 318 316 314 315 314 313 314 316 317 317 317 317 317 316 315 315 315 316 316 316 316 316 316 316 316 316 316
318 317 316 315 315 314 314 314 313 313 313 314 315 314 314 314 313 314 312 312 311 310 311 311 311 313 314 314 314 312 311 313 314 314 313 313 314 314 314 314 313 314 315 314 315 315 315 315 313 313 314 314 314 314 315 315 316 317 316 316 317 318 316 316 315 314 314 314 316 317 317 317 316 317 317 315 316 316 316 317 316 316 316 316 316 316 317 316
317 316 315 315 315 314 314 313 312 313 313 314 315 314 314 313 313 314 312 310 310 310 311 311 312 313 314 314 313 312 312 312 314 314 313 314 314 313 314 314 313 315 315 314 314 314 315 313 311 313 316 316 315 315 316 315 315 318 319 319 320 320 318 318 316 314 314 315 316 316 317 319 317 315 316 315 316 316 316 317 317 317 317 316 317 316 317 317
316 315 315 314 314 313 312 312 313 313 313 314 314 313 313 311 312 312 310 310 310 311 311 311 312 313 313 313 312 313 312 312 314 313 312 314 314 313 314 314 314 314 314 315 314 315 316 311 310 315 316 317 317 316 318 318 315 317 321 321 319 319 318 318 317 316 316 317 318 316 318 324 322 316 316 316 315 316 315 316 316 317 318 317 317 317 316 317
316 315 315 314 313 313 312 313 313 312 313 314 312 311 311 311 311 311 310 310 310 311 310 311 312 313 313 312 312 313 312 313 314 312 312 314 314 314 314 314 314 314 314 314 315 316 314 310 312 318 318 319 319 316 319 321 315 314 321 323 319 321 322 321 321 319 317 318 318 316 317 322 323 318 318 319 318 318 317 316 316 317 318 317 318 317 317 317
315 315 314 313 312 312 312 313 313 312 313 313 311 310 311 310 311 311 312 311 311 311 310 311 312 313 314 312 312 313 313 314 315 313 312 314 315 314 314 314 314 315 314 314 316 316 312 311 316 319 319 321 319 316 319 320 316 317 323 325 321 322 325 324 323 320 318 318 317 317 318 319 321 320 318 319 319 318 318 318 318 316 316 317 316 316 316 316
315 314 314 313 312 312 313 313 312 312 313 312 310 310 310 310 311 313 313 311 312 311 309 310 311 313 314 312 312 313 314 315 315 314 314 314 315 314 314 314 314 315 314 313 316 315 314 315 318 319 319 319 317 319 323 320 317 321 323 323 322 323 325 323 321 319 320 320 319 320 318 317 320 321 318 319 319 318 319 318 318 316 315 316 316 316 316 315
314 314 313 312 311 312 313 312 312 312 312 311 310 309 309 310 312 314 312 311 312 310 310 310 311 314 314 312 313 313 314 315 315 315 314 314 315 313 314 314 313 315 314 315 318 317 315 314 315 318 319 319 317 318 325 324 319 319 320 323 324 324 323 321 320 320 319 320 322 322 319 317 320 321 317 318 318 318 319 317 317 316 316 316 316 316 316 315
314 314 313 312 312 312 313 312 312 311 311 310 309 309 309 309 311 313 312 312 312 310 310 310 311 314 314 312 313 313 314 314 314 314 314 314 314 313 315 315 313 316 318 320 319 316 313 311 313 316 315 315 315 314 319 323 319 318 320 322 322 321 321 319 320 319 317 321 323 322 320 317 318 322 319 317 318 318 317 317 318 316 316 317 316 316 315 314
314 314 312 311 311 312 313 312 311 311 310 310 309 308 309 310 311 313 312 313 314 312 309 309 311 314 313 313 313 313 314 314 313 313 313 313 313 313 315 315 315 318 320 321 319 315 313 312 314 314 311 312 315 315 316 316 316 319 322 321 319 319 319 318 318 318 318 322 319 317 320 319 317 319 318 316 316 316 315 317 318 318 317 316 316 315 314 314
314 313 312 311 312 312 313 312 310 310 310 309 308 308 309 311 312 313 313 313 314 312 310 310 312 313 313 313 313 313 314 315 313 313 313 314 313 313 315 315 316 318 317 318 320 319 317 315 315 314 311 312 316 317 316 315 316 321 321 318 320 321 317 318 319 319 320 319 314 313 317 318 317 316 315 316 315 315 315 316 318 318 317 317 317 316 314 314
313 312 311 311 312 312 312 311 309 310 309 308 308 309 311 313 312 313 312 312 314 313 311 311 312 313 313 313 313 314 315 315 313 313 314 314 314 314 316 316 316 316 316 317 319 320 320 317 315 316 313 312 316 316 315 316 316 319 318 317 322 321 316 317 319 320 319 317 314 314 315 318 318 316 316 316 314 314 314 313 316 316 315 316 316 315 313 313
312 312 312 312 312 312 311 310 309 310 309 308 309 310 313 313 313 313 312 312 313 312 311 312 312 313 313 313 314 314 316 316 314 313 314 315 314 314 315 316 317 317 316 316 316 317 319 317 316 317 315 314 317 317 316 316 316 319 320 319 320 320 319 318 319 322 323 317 313 313 316 320 320 317 318 316 313 314 314 313 313 313 313 314 313 312 312 314
312 312 312 312 311 311 309 309 309 309 308 308 310 311 313 313 313 313 312 312 313 312 311 312 312 313 313 314 315 314 316 316 315 314 314 314 314 314 314 314 316 317 316 316 316 314 316 318 316 315 314 314 317 317 317 316 316 318 320 320 320 321 325 321 316 319 322 318 316 316 319 322 320 317 318 315 314 314 312 312 312 312 313 312 312 313 313 315
312 311 311 311 311 310 309 308 309 308 308 309 311 312 313 313 313 314 312 312 312 312 312 312 312 312 312 315 316 315 316 317 316 315 315 314 315 315 315 315 316 316 316 316 317 316 316 318 315 314 314 313 314 315 316 316 316 317 318 319 319 320 325 322 315 314 315 316 318 318 319 319 316 317 318 316 317 315 312 312 311 311 313 312 312 314 314 315
312 311 311 311 310 309 308 309 308 308 309 310 312 313 313 313 315 315 313 313 312 313 313 312 313 312 312 314 315 315 317 318 316 316 315 315 315 315 315 316 315 316 316 315 316 317 316 316 314 315 316 313 309 312 314 313 314 318 319 318 317 316 320 319 315 315 315 314 317 319 319 317 314 317 320 315 316 317 315 313 311 311 313 312 312 314 315 315
311 311 311 311 310 309 308 308 308 309 310 310 313 314 313 316 317 315 313 314 313 314 313 312 313 312 312 315 315 315 316 316 316 317 316 315 316 316 315 316 315 315 316 315 317 318 318 318 315 314 316 313 310 313 315 312 312 315 317 316 317 317 318 316 314 317 319 315 317 321 319 317 316 316 317 315 315 318 317 314 313 314 313 311 313 316 315 314
311 311 311 310 309 309 309 308 308 310 310 311 313 314 315 318 317 313 313 314 313 313 313 314 313 313 314 315 315 315 315 315 316 317 317 316 317 317 315 316 316 315 314 315 318 320 321 322 317 313 315 314 313 315 316 315 314 314 314 314 317 318 319 319 316 318 322 317 316 320 319 321 323 318 316 316 316 316 317 317 316 313 312 312 315 317 315 313
311 312 311 310 309 309 308 309 310 311 311 311 312 313 316 319 316 313 313 313 313 313 313 315 314 313 315 315 315 315 315 316 317 316 317 316 315 316 315 315 317 316 314 316 320 319 317 322 320 314 313 315 315 316 316 316 314 314 315 314 315 315 316 319 318 319 321 318 316 317 316 322 324 318 316 315 316 319 319 321 319 313 313 315 316 316 314 313
312 313 312 310 309 309 309 310 311 311 311 312 311 313 316 317 315 315 314 314 314 314 313 315 314 314 315 315 315 315 314 316 317 316 316 315 314 315 315 315 316 316 315 316 319 318 315 319 319 314 314 315 316 316 315 316 317 316 315 314 314 315 315 318 319 319 317 316 318 316 316 323 322 316 317 316 317 320 318 318 318 313 313 315 316 315 313 314
313 314 312 310 309 309 309 311 312 310 311 312 312 315 315 314 315 316 315 314 315 316 315 316 315 314 316 315 315 315 314 315 316 316 316 316 315 316 315 315 315 315 315 316 318 318 318 318 317 315 315 315 315 313 310 312 319 319 316 316 316 314 316 318 319 320 317 315 316 314 317 325 323 316 317 316 313 314 313 314 315 312 312 313 313 313 313 313
313 312 311 310 310 309 310 311 312 311 312 313 314 315 313 313 315 315 315 315 316 317 317 317 315 315 316 315 315 315 313 313 316 316 315 316 316 316 315 314 315 314 315 317 317 317 317 319 318 316 316 314 314 314 311 312 318 318 316 318 317 314 315 317 319 320 319 317 316 314 316 323 322 317 314 311 310 310 311 312 313 312 312 311 311 311 312 312
312 311 311 311 310 310 310 311 311 311 313 313 315 316 314 314 315 314 315 316 315 316 318 318 317 316 317 317 315 315 313 313 316 316 316 318 317 315 314 314 315 314 314 315 315 314 316 319 318 318 318 316 316 316 316 315 316 316 316 316 315 315 316 317 318 318 318 320 321 318 318 321 321 317 312 311 311 311 309 310 311 312 312 311 311 311 311 312
312 312 311 310 310 311 312 311 311 311 312 314 315 315 315 315 315 314 315 316 314 314 316 318 318 318 319 319 317 316 313 315 318 317 317 319 317 314 314 314 314 314 314 314 313 313 316 317 318 318 318 317 316 316 316 316 315 315 318 317 317 319 318 315 317 317 318 321 321 318 318 317 315 313 312 313 315 313 311 310 310 312 312 312 312 312 312 312
313 312 311 310 309 311 312 311 312 312 312 314 314 314 314 315 314 313 315 316 316 315 316 318 317 317 318 318 317 316 314 316 320 318 318 320 317 315 315 315 314 313 314 314 312 312 315 316 315 315 315 314 314 315 318 319 316 315 317 318 318 319 317 316 317 318 318 320 320 319 317 314 313 312 312 314 316 315 313 311 310 312 313 313 312 312 313 313
312 312 311 311 310 311 311 311 312 313 312 312 313 313 313 314 313 313 314 316 316 316 318 317 315 316 317 317 317 317 315 317 320 318 318 318 316 313 312 313 314 312 312 313 312 313 315 316 316 315 315 315 314 318 322 320 317 316 315 317 317 317 318 318 318 317 316 317 317 318 317 316 314 313 313 315 317 315 312 310 311 312 312 313 313 313 313 313
309 309 308 310 311 311 311 311 311 312 313 312 312 313 313 313 313 312 314 315 314 315 318 318 316 315 316 316 316 317 317 317 318 318 318 317 314 313 312 313 312 310 311 312 313 316 317 316 316 316 316 316 316 321 324 320 317 317 315 315 317 317 318 318 317 316 316 317 315 315 317 317 314 313 314 314 314 313 311 310 311 312 312 313 313 313 314 314
306 307 306 308 311 311 310 310 311 312 313 312 312 313 312 312 312 311 314 315 314 315 316 316 316 315 316 316 316 316 317 317 316 317 317 314 313 314 314 313 312 310 311 314 315 315 315 315 316 316 316 317 318 322 325 321 318 318 317 316 316 316 317 317 316 315 316 317 316 314 316 316 314 314 315 313 312 311 311 312 312 312 312 313 313 313 314 314
304 305 306 307 309 310 310 310 311 313 313 312 312 313 312 312 311 311 314 314 314 315 314 314 316 315 316 316 315 315 316 316 316 317 316 313 313 314 314 314 314 312 312 315 315 313 314 317 317 315 316 317 318 321 324 322 321 320 319 319 318 317 317 316 315 315 315 315 315 315 316 316 314 314 314 313 312 312 312 312 312 312 313 313 313 313 313 314
303 304 306 307 309 310 311 311 311 313 313 312 312 313 312 313 312 312 313 313 312 314 314 315 316 315 316 316 315 315 316 316 316 315 313 313 313 313 314 313 313 313 313 315 316 314 316 318 317 317 317 316 316 319 321 320 318 318 320 322 321 319 317 316 315 315 314 315 315 315 316 315 313 313 314 314 312 311 311 312 312 312 313 313 313 313 313 313
302 304 305 307 308 309 311 312 312 313 313 312 312 312 312 313 313 312 313 313 313 313 313 315 316 315 315 316 315 315 314 315 315 313 311 312 311 311 313 312 310 312 314 314 315 315 315 316 318 318 317 316 317 319 319 317 316 316 318 320 320 318 317 316 316 315 315 315 315 315 314 313 313 315 316 316 314 311 310 311 312 313 313 313 313 312 312 313
Wind_Speed
53 54 54 53 51 50 47 43 40 39 39 40 42 44 45 45 43 42 40 40 40 40 38 36 35 33 32 32 31 29 26 24 25 27 31 32 29 22 18 15 10 6 7 7 5 6 8 7 5 5 6 6 6 7 7 8 9 4 1 2 4 4 4 5 4 5 7 7 7 13 16 10 6 8 6 4 4 4 6 7 6 6 6 7 12 15 15 16
54 53 53 52 51 50 47 44 41 39 38 39 41 43 44 45 45 43 42 41 41 41 39 37 36 34 33 30 29 27 26 26 26 32 33 30 29 26 22 17 11 7 9 8 4 6 8 6 4 5 6 6 7 7 6 6 6 5 2 2 4 3 2 4 7 6 7 10 10 13 14 10 9 11 9 5 6 7 6 7 9 7 7 9 12 15 15 15
56 55 54 53 51 50 47 45 42 39 38 40 40 42 43 45 47 45 44 44 42 41 40 38 35 34 32 29 27 24 25 26 29 38 36 30 32 29 22 18 14 10 11 9 4 6 7 6 4 4 6 8 9 8 7 5 5 7 5 2 4 2 4 9 13 10 10 16 13 12 12 8 10 13 11 7 8 10 8 9 13 12 11 12 13 14 14 16
58 57 55 53 51 50 48 45 42 39 38 39 40 41 44 45 46 46 44 45 45 42 40 38 34 32 30 28 24 22 24 20 25 36 30 28 32 28 23 18 15 13 11 10 6 8 7 6 5 5 7 9 11 9 6 7 5 5 6 2 3 1 3 9 12 10 11 16 14 13 11 6 10 11 10 8 6 7 10 14 15 16 16 15 16 14 14 18
57 57 55 53 51 50 48 45 42 40 38 39 39 40 44 45 46 46 45 44 45 43 40 37 34 31 28 26 22 22 20 8 13 26 24 26 30 28 23 18 17 15 11 9 7 10 9 6 6 6 7 7 8 8 6 11 8 3 6 2 6 6 4 6 9 10 10 13 14 14 9 7 9 7 10 10 5 3 8 14 15 16 18 16 17 16 15 18
55 56 55 54 51 49 49 45 42 40 38 38 38 40 43 45 45 46 45 44 44 44 41 37 34 31 26 24 23 23 19 5 4 11 20 25 26 28 25 19 18 15 12 13 10 9 8 6 6 6 6 5 6 6 6 12 10 3 7 3 7 7 4 4 6 10 9 10 12 10 9 10 10 6 10 12 7 4 5 10 12 13 15 16 17 17 16 17
55 56 56 55 51 49 48 45 42 39 37 37 38 41 43 43 44 45 45 44 43 43 41 39 35 31 27 25 24 23 20 13 4 1 11 24 25 26 24 22 20 16 19 22 16 10 8 8 9 9 7 5 6 8 10 12 9 5 4 2 5 7 6 3 5 8 7 8 8 8 9 10 8 5 8 13 10 4 3 6 10 9 11 15 17 16 15 14
55 57 56 53 49 47 48 44 40 37 35 36 38 40 41 42 43 44 43 42 42 41 40 38 34 31 29 29 29 24 23 25 16 3 5 18 24 24 24 25 23 18 24 28 21 13 11 12 13 12 6 6 8 5 9 9 7 8 3 2 4 6 5 4 5 7 7 6 6 7 7 7 7 3 5 13 12 7 6 4 8 8 9 13 15 15 15 14
52 55 56 54 49 46 47 42 38 36 35 36 38 39 41 42 42 42 41 41 40 39 38 36 33 31 29 32 30 21 24 30 22 11 6 10 21 27 29 31 26 21 25 30 25 16 13 15 14 13 7 7 10 4 6 6 3 7 4 5 6 6 5 5 5 5 5 3 6 6 3 3 3 1 4 14 14 11 11 8 9 9 11 13 14 14 15 15
52 55 56 57 52 47 46 41 38 37 38 38 37 39 39 40 40 38 38 39 38 36 36 34 32 32 31 32 25 13 22 30 21 13 8 6 17 27 31 33 28 24 27 30 25 20 18 16 13 15 11 7 8 5 5 5 2 3 8 9 7 6 5 5 5 6 4 3 6 4 3 2 1 1 4 11 14 13 13 12 12 11 11 14 14 15 15 15
53 55 56 56 53 49 46 42 41 39 39 38 37 38 38 38 38 36 36 36 36 35 35 34 33 34 35 33 22 12 20 28 25 18 8 5 15 25 30 31 27 25 30 30 25 23 21 17 12 11 10 6 5 5 5 5 2 4 11 9 6 5 5 5 5 7 4 3 7 2 3 3 2 2 6 10 15 16 15 13 14 14 12 13 14 15 15 16
52 54 57 56 53 50 48 45 43 41 39 39 38 38 37 37 37 36 34 33 33 34 33 35 35 36 36 28 21 18 17 22 27 25 13 6 11 22 25 25 26 27 30 28 25 24 20 18 13 9 8 5 3 2 4 8 3 5 8 4 4 4 3 5 4 8 5 2 8 3 3 1 2 8 17 14 15 16 16 14 13 15 15 14 14 15 16 17
50 54 58 57 55 50 49 47 43 41 40 39 38 37 37 35 36 35 34 32 32 33 35 36 37 38 32 20 21 20 13 14 22 28 23 10 6 15 21 23 24 27 29 28 26 23 20 18 14 10 8 6 3 3 2 6 6 5 5 1 4 2 2 7 6 7 4 3 9 4 1 4 7 17 22 16 15 16 16 15 14 15 16 16 16 16 17 18
49 56 60 58 56 50 48 46 43 41 40 38 36 36 36 33 33 34 33 32 31 34 37 39 40 37 24 15 20 21 12 11 17 26 29 20 10 11 19 24 26 26 27 27 25 20 19 19 14 10 9 9 4 4 2 3 4 4 3 3 3 2 3 6 7 8 4 3 9 5 1 5 5 10 16 16 15 15 15 15 15 15 16 18 18 18 19 19
53 60 64 57 52 49 47 46 42 39 38 38 35 34 35 33 31 31 31 31 32 37 39 41 42 31 15 11 16 20 14 12 16 20 26 27 18 12 18 24 26 26 25 24 22 18 17 17 15 10 8 8 5 4 3 2 2 2 3 3 3 3 3 2 5 9 4 3 9 5 2 6 2 4 12 15 15 13 14 14 15 15 15 17 19 20 20 21
56 58 60 55 50 48 46 45 40 37 38 38 35 33 34 32 30 28 29 30 31 36 38 42 41 24 9 8 11 19 18 15 16 17 21 27 21 15 20 24 24 25 23 21 19 16 14 13 12 8 6 5 4 3 3 3 2 3 4 3 4 4 3 1 2 5 4 4 7 5 3 4 2 4 9 12 13 13 13 13 15 16 15 16 18 20 22 21
58 59 57 53 50 47 46 44 39 38 38 39 37 35 34 30 29 28 27 27 29 34 36 39 36 15 4 8 11 20 25 20 18 18 20 25 21 16 21 24 23 23 20 17 15 13 13 12 9 6 5 4 4 4 4 4 3 3 3 2 4 6 4 3 1 3 6 3 4 6 4 5 3 6 10 11 14 15 14 15 15 15 16 16 16 18 20 21
59 61 57 53 49 47 47 43 39 38 38 41 40 36 32 29 28 28 26 26 28 28 23 26 26 6 6 16 16 21 29 25 19 19 20 22 20 17 22 24 23 22 17 12 11 12 13 10 7 4 4 4 5 5 4 4 5 4 5 3 3 5 5 5 1 4 8 3 3 6 6 9 8 6 11 13 14 16 16 16 16 15 16 16 17 17 18 20
60 59 56 53 49 48 47 43 41 40 41 43 40 36 32 30 28 23 24 28 30 22 11 25 32 8 2 19 21 19 27 28 20 18 22 23 20 18 20 22 23 23 16 9 8 13 12 6 4 4 4 6 6 7 6 5 6 8 9 6 4 5 4 3 2 3 8 4 4 7 7 10 10 7 10 14 16 16 17 16 16 16 17 16 17 19 19 20
60 58 55 51 50 49 46 45 42 42 46 44 43 42 34 28 20 12 22 33 38 27 14 35 44 10 2 19 24 20 24 26 21 20 22 24 23 20 18 19 22 18 11 7 7 12 13 5 4 6 6 7 8 9 7 2 3 6 9 8 6 5 2 2 3 1 3 3 6 8 8 8 9 8 8 13 17 16 16 16 17 18 18 18 18 19 21 22
59 57 56 52 51 49 46 47 44 46 47 45 53 48 39 39 20 19 34 31 35 26 7 32 43 10 6 27 30 27 27 21 20 22 21 24 25 19 17 18 15 9 8 11 8 9 12 6 6 8 7 8 10 9 4 2 5 2 4 6 6 5 2 2 3 2 1 1 5 8 8 9 9 7 9 11 12 14 17 18 19 21 20 20 20 20 21 21
59 56 55 53 51 49 48 48 46 48 44 49 57 40 44 52 26 39 50 19 21 21 4 29 38 9 11 27 29 30 30 22 18 23 23 26 25 17 16 15 9 6 9 11 8 5 6 5 6 11 10 7 9 8 2 1 2 4 1 3 3 3 4 3 2 2 2 1 2 3 3 7 8 7 9 12 13 14 20 21 21 23 22 23 23 22 22 21
59 56 55 53 52 50 49 47 46 47 45 57 55 29 39 40 16 42 50 16 15 16 6 31 32 11 14 21 24 26 26 22 19 23 27 28 25 18 17 13 8 8 9 9 8 5 5 5 5 8 8 6 5 7 5 1 1 1 1 1 1 3 4 1 1 2 1 1 0 4 4 5 6 7 8 15 21 20 20 23 23 23 24 25 25 23 23 22
58 57 55 53 53 50 48 46 46 47 51 60 46 25 32 29 21 44 37 14 12 7 10 34 27 13 16 18 23 23 20 21 20 25 31 30 24 18 16 14 10 8 8 10 10 7 5 3 2 2 6 7 5 5 6 4 2 2 2 0 0 3 4 2 3 4 0 1 1 2 5 5 6 9 9 13 20 20 21 22 23 25 26 25 24 23 23 23
59 56 55 54 52 50 48 47 49 50 54 55 37 25 30 31 38 44 25 11 8 2 9 25 19 13 16 19 24 20 16 17 19 27 34 32 25 16 14 16 12 8 10 12 10 6 4 2 1 3 5 6 6 5 6 6 3 3 3 2 0 2 7 7 5 4 2 2 2 2 1 6 5 8 10 8 10 14 17 18 19 24 24 23 25 26 25 24
60 57 57 55 51 52 50 46 50 50 53 50 34 30 37 43 44 35 17 7 4 4 6 15 17 14 15 20 26 21 12 12 16 27 35 31 25 16 12 12 7 7 12 10 5 2 2 0 1 4 6 6 5 4 5 6 4 3 3 3 3 6 8 7 6 4 2 2 2 2 3 4 5 4 7 4 6 8 9 10 15 21 21 23 27 28 28 28
60 58 57 55 53 57 53 47 50 51 52 46 34 37 46 50 42 26 12 3 4 8 7 10 14 14 15 22 29 18 6 12 17 24 35 30 22 16 10 7 3 6 11 7 3 1 3 3 1 4 6 5 5 3 5 7 5 3 3 1 5 7 7 7 5 2 1 1 1 1 2 2 4 6 6 1 4 5 6 7 12 18 22 24 26 28 28 28
60 58 57 54 56 58 52 50 54 54 52 42 37 46 53 50 37 19 7 1 6 9 7 9 10 13 16 22 28 12 7 21 16 15 33 28 18 13 7 8 6 5 8 7 5 1 2 4 5 7 6 4 5 2 4 8 4 2 3 1 4 5 5 6 4 2 1 3 2 4 2 1 5 6 5 3 4 6 7 9 10 16 22 22 21 20 20 21
60 59 56 54 55 50 43 47 55 54 48 37 40 51 53 43 26 9 2 3 6 5 7 11 10 14 18 20 23 10 11 21 9 11 29 23 16 11 4 10 11 6 5 5 5 1 0 4 4 6 6 4 4 1 1 5 3 3 3 3 6 5 4 3 2 3 2 1 3 5 4 2 5 5 4 4 5 7 8 8 4 7 14 16 15 14 14 16
59 59 56 56 56 47 38 42 50 50 41 35 43 52 45 29 13 5 5 5 5 4 8 12 11 15 19 16 14 11 9 8 7 18 22 14 15 11 5 13 14 7 5 6 6 2 1 3 2 2 3 3 5 3 4 3 7 7 4 5 7 5 5 4 1 4 3 2 4 4 4 3 3 5 5 4 4 5 5 3 1 5 9 10 10 10 9 10
58 57 57 58 57 49 41 43 50 48 38 36 46 46 31 14 4 5 7 5 5 4 5 10 11 15 20 15 11 12 8 4 11 20 15 9 11 8 7 11 9 6 3 4 5 2 3 3 1 2 2 4 6 4 6 4 6 5 4 5 5 3 4 4 3 4 1 4 3 3 2 2 3 6 3 3 2 3 2 3 4 6 7 8 7 6 4 4
56 56 57 57 54 47 42 47 54 47 35 38 47 38 19 7 4 4 5 7 6 5 6 11 14 14 17 16 11 11 8 6 11 15 12 9 7 7 8 7 6 5 3 3 3 2 3 3 2 2 0 4 4 4 4 5 2 2 4 6 5 2 2 1 0 1 2 4 3 3 4 0 5 7 6 7 6 4 4 4 8 9 9 8 7 5 2 3
55 56 55 52 50 43 38 48 54 42 33 39 41 27 10 6 8 7 6 6 6 8 10 12 16 15 15 13 10 10 9 7 11 13 11 9 6 7 8 7 10 7 5 6 4 3 2 1 2 3 1 5 4 5 4 0 2 3 5 6 5 4 2 2 3 2 3 2 3 4 2 2 4 5 8 13 10 5 6 5 8 10 10 9 8 5 4 4
54 55 52 48 47 42 40 50 50 39 38 38 27 14 8 8 9 8 8 5 4 9 12 12 15 16 14 11 9 11 8 6 12 12 10 10 8 8 9 9 12 7 5 7 5 6 6 2 3 3 2 6 5 3 5 6 5 4 3 5 4 4 4 4 3 2 3 1 3 3 1 3 3 3 6 8 5 5 6 5 7 9 10 10 10 9 7 6
54 53 47 45 45 42 45 52 45 39 43 34 14 7 10 10 9 9 8 5 4 9 13 15 16 15 12 8 9 11 5 4 11 10 9 11 9 10 10 9 12 8 6 7 4 5 7 3 2 1 0 5 4 2 1 7 5 3 2 4 2 3 4 3 2 3 4 2 1 2 2 4 5 4 7 6 4 5 5 5 7 9 11 12 11 9 7 6
54 49 44 45 44 42 49 50 42 42 43 25 8 7 10 7 6 7 7 6 7 11 15 15 13 12 10 6 9 11 2 4 11 9 8 10 9 10 10 8 12 12 8 8 4 3 6 1 3 2 3 2 1 2 1 4 4 1 2 3 4 3 6 5 0 0 3 0 2 3 3 5 3 5 9 7 5 4 3 4 7 8 8 8 8 7 8 7
54 48 43 46 44 44 51 48 42 45 36 16 8 10 9 4 2 5 7 9 11 14 15 13 9 11 12 8 10 14 7 6 11 8 7 9 8 11 13 9 14 15 9 7 4 2 6 2 3 2 2 2 2 2 3 3 2 4 3 5 4 2 3 3 1 1 1 2 3 4 5 4 2 4 6 1 4 5 5 6 7 9 9 8 7 9 10 7
53 44 39 42 43 45 50 45 43 42 25 9 11 12 7 3 1 5 12 13 14 15 11 9 8 9 12 10 9 14 11 9 10 8 7 8 6 11 14 9 12 17 10 6 3 2 5 4 3 3 2 1 2 2 2 3 3 2 3 3 3 2 1 2 3 2 2 3 3 3 6 4 4 4 2 0 5 7 6 6 6 8 11 10 8 11 11 8
47 33 26 36 42 44 47 44 42 34 15 7 12 10 6 4 1 9 21 18 13 13 10 7 7 7 9 10 9 12 12 10 10 7 6 6 4 9 15 9 9 17 12 6 4 3 4 4 1 3 3 1 1 0 4 2 2 2 2 2 2 1 3 3 3 3 3 3 3 3 3 4 5 6 6 7 7 7 7 5 5 6 8 9 11 13 12 9
42 22 15 34 42 41 45 42 34 21 10 9 11 7 6 3 1 12 26 23 11 7 8 8 9 9 9 10 10 10 9 8 10 7 4 6 4 5 11 10 8 14 11 6 4 3 3 3 3 0 3 1 1 2 5 6 5 2 3 4 2 1 2 1 2 2 4 3 3 3 3 5 6 5 7 9 6 6 8 6 5 7 8 9 12 14 12 10
35 11 11 35 39 39 44 33 18 12 8 9 8 5 7 6 4 7 15 17 10 2 4 9 10 9 9 10 10 9 7 7 9 7 4 7 7 2 5 8 10 13 9 5 3 2 2 3 5 3 1 2 1 1 1 3 5 4 4 7 7 5 4 2 2 2 3 3 3 4 3 5 5 2 2 6 5 5 8 8 8 9 9 11 13 14 13 11
23 5 17 39 38 42 42 19 9 10 7 7 5 4 7 9 8 6 5 8 7 2 2 7 9 8 7 9 10 10 9 7 8 9 5 6 7 3 4 9 17 17 10 5 2 2 3 5 5 3 2 1 1 1 1 0 1 1 3 4 6 6 5 5 5 4 2 1 1 2 2 6 6 2 3 4 5 5 6 7 9 10 10 11 12 13 13 12
14 11 23 38 38 42 32 9 8 9 3 6 8 6 7 7 6 7 5 5 4 1 2 5 8 9 7 7 9 11 11 8 8 10 7 6 6 4 8 15 20 16 8 5 3 3 4 5 4 3 2 1 2 1 0 1 1 2 5 5 5 7 7 5 4 4 3 3 2 2 3 6 6 2 3 3 4 5 5 6 7 9 9 9 10 11 11 11
19 22 24 32 38 37 21 8 11 10 6 9 8 4 4 4 5 8 8 6 4 3 3 3 7 8 5 6 9 11 12 8 7 8 5 6 4 1 7 20 22 13 7 8 9 7 5 4 5 5 3 2 2 2 2 3 4 3 3 4 5 6 6 3 1 3 2 4 6 4 4 7 5 1 2 2 2 3 4 6 7 8 9 9 9 9 9 9
21 18 17 29 37 28 10 3 8 9 9 10 8 7 5 3 3 6 9 7 4 4 4 3 6 7 5 6 7 8 12 7 4 6 4 4 2 3 3 19 21 11 7 12 17 14 7 4 6 6 6 6 6 5 5 4 3 1 1 4 7 7 10 6 2 3 2 5 6 5 6 8 3 1 1 2 2 2 5 7 9 10 11 10 9 9 8 8
15 7 9 18 24 18 7 3 2 6 10 11 8 9 9 5 1 2 7 6 1 4 5 3 6 8 5 8 8 8 12 6 3 5 5 4 2 3 2 9 11 8 7 15 23 16 3 3 7 8 9 11 9 5 4 7 6 6 8 8 8 7 9 7 4 4 5 5 4 5 9 11 8 3 4 5 5 6 7 9 12 13 13 13 12 11 10 10
10 7 9 11 12 12 7 4 4 6 12 14 9 9 12 10 5 2 2 1 3 6 4 2 6 8 7 11 9 7 11 6 5 7 7 5 3 1 4 5 5 6 6 15 22 13 3 4 9 10 12 10 5 3 7 10 9 12 13 10 9 8 7 7 6 9 9 5 6 9 10 12 14 8 8 8 7 6 7 11 17 18 17 16 14 13 13 12
5 7 12 15 11 9 9 9 10 10 14 15 9 9 14 12 10 8 1 1 5 7 3 2 6 10 12 14 9 7 9 6 4 7 7 5 3 3 4 7 5 3 3 8 13 6 3 6 7 8 11 9 3 4 8 10 9 11 13 12 12 11 10 10 12 13 9 7 11 15 15 16 17 11 9 9 10 10 13 18 21 21 20 18 16 15 15 14
6 7 9 13 8 6 8 10 9 10 13 15 9 9 16 16 14 12 4 3 5 5 5 6 8 11 13 12 9 8 9 8 6 6 5 6 5 5 3 2 2 1 2 4 4 1 2 4 5 6 7 8 5 6 7 8 7 8 11 13 13 12 13 14 16 16 13 12 15 17 14 15 15 10 8 11 16 19 18 19 20 20 21 20 19 17 16 15
6 5 7 8 3 6 12 11 7 7 9 13 10 8 14 16 17 13 6 8 11 7 7 10 11 12 12 11 10 9 11 13 10 7 7 7 5 4 3 4 3 1 1 3 2 1 2 3 4 6 4 6 5 7 7 7 7 6 8 9 11 12 13 15 16 16 13 13 16 15 10 11 13 9 7 12 18 18 15 18 23 24 24 23 20 18 16 16
7 7 11 9 4 6 12 8 7 8 8 10 10 9 12 15 17 13 7 9 13 11 11 11 11 11 9 11 13 11 13 13 10 15 20 15 13 12 6 6 10 7 4 4 4 3 3 3 3 6 4 5 6 9 7 5 5 3 5 8 12 13 14 14 14 13 11 11 13 12 9 13 11 4 4 10 13 14 15 20 23 22 23 23 21 20 19 18
10 10 12 10 4 4 9 7 7 8 8 8 9 10 11 12 15 13 7 6 8 11 14 13 11 9 8 11 13 11 12 11 10 21 26 18 17 17 10 12 18 14 7 5 3 3 5 4 3 5 5 5 4 6 7 6 4 3 8 13 16 15 13 12 11 12 12 11 10 10 13 16 8 4 4 7 7 10 13 17 19 20 22 23 22 20 20 19
Wind_Direction
217 213 217 219 219 220 220 219 218 217 214 218 222 222 220 219 219 217 217 216 215 214 212 213 214 216 219 222 224 225 226 228 227 225 227 223 217 224 233 228 214 202 244 266 298 309 301 299 291 284 281 276 262 246 252 251 241 243 235 233 247 237 199 185 167 124 135 132 145 163 161 154 147 162 172 158 149 145 145 155 166 178 186 139 135 156 172 181
219 214 215 218 216 217 219 219 218 218 214 215 220 221 220 219 219 218 217 215 215 214 212 213 213 215 217 218 222 223 226 232 232 231 233 229 222 228 231 225 225 226 245 255 287 301 288 287 300 293 270 256 252 235 236 238 220 214 203 238 251 264 329 79 89 80 115 141 151 159 171 173 162 168 170 176 181 172 169 182 182 175 176 160 156 169 179 188
218 214 215 217 215 215 218 219 218 217 213 213 217 220 220 218 218 218 218 217 216 214 212 213 213 215 216 217 220 218 224 231 235 238 238 231 224 229 232 226 228 231 241 243 253 277 272 266 270 285 262 251 244 225 221 221 209 218 218 266 247 209 31 52 79 71 99 136 146 150 176 181 151 159 169 190 186 180 200 193 181 180 185 180 175 184 188 189
215 212 214 214 212 214 217 218 217 216 213 213 214 217 219 217 216 217 217 217 217 215 213 213 212 213 215 216 215 213 218 226 240 241 232 222 221 226 227 215 215 222 227 229 233 246 249 248 251 274 269 257 235 219 216 205 203 217 206 230 283 228 63 60 83 84 101 132 143 145 165 165 141 155 170 192 194 184 213 207 195 191 195 193 187 195 196 190
212 208 210 211 210 212 215 216 216 216 214 213 212 215 218 215 214 215 216 216 216 216 213 212 211 210 211 208 206 205 202 207 254 239 219 213 216 217 213 196 205 216 214 218 229 240 241 241 254 267 265 266 231 210 215 213 212 249 239 242 5 359 53 75 94 99 101 128 136 138 157 157 145 164 176 192 214 168 203 209 203 196 200 204 195 198 200 194
214 208 209 212 210 209 214 215 215 216 214 212 210 213 217 214 212 213 215 215 215 215 213 212 209 207 206 199 198 193 186 180 302 232 216 215 212 210 201 185 201 208 199 208 223 242 244 234 237 245 246 262 243 219 212 213 206 239 254 226 37 26 67 80 113 106 96 122 130 143 165 155 151 179 189 207 222 124 141 180 180 186 198 205 199 198 200 199
214 209 208 211 209 207 212 214 214 215 214 212 209 212 215 212 211 212 212 213 213 213 212 211 208 206 200 189 188 186 194 221 254 51 214 212 211 211 200 186 193 192 189 199 216 236 235 222 209 222 239 245 254 239 212 201 190 218 259 160 73 62 80 91 136 122 105 114 117 148 160 151 167 190 192 214 221 159 134 162 166 174 186 196 198 197 202 205
212 207 205 207 204 205 210 212 212 211 209 211 209 210 213 210 209 209 209 211 211 210 210 209 206 202 195 187 182 183 205 222 224 260 216 199 201 203 197 192 188 184 188 195 212 228 223 223 210 210 228 236 262 258 197 185 181 222 257 101 104 84 92 101 124 131 123 126 120 136 145 143 174 186 189 215 218 210 230 205 176 175 173 188 199 199 203 209
211 206 206 208 204 204 208 209 207 205 205 209 208 207 209 208 207 207 208 208 208 207 205 204 200 195 192 188 181 185 215 219 215 235 250 199 194 191 191 196 189 181 188 194 209 228 225 227 218 209 222 245 262 273 186 192 207 220 192 112 112 101 111 100 103 128 123 153 141 134 147 124 166 197 233 230 221 215 224 212 188 177 174 188 204 209 209 213
210 206 206 209 208 206 206 204 200 201 206 208 206 203 204 204 202 202 204 205 205 203 200 198 191 187 185 181 177 192 224 217 207 212 231 212 197 192 191 196 192 182 187 193 209 229 222 219 221 219 234 259 254 248 201 207 285 191 137 109 108 106 117 113 103 128 121 143 155 154 158 111 346 198 255 239 214 208 213 208 201 192 187 192 204 216 216 216
207 207 205 204 205 205 202 199 197 200 205 207 205 202 199 200 199 198 200 203 202 198 196 191 184 184 181 177 180 202 216 213 204 198 197 197 198 197 194 193 189 183 186 193 213 228 217 218 234 226 228 258 240 231 224 216 314 121 125 103 110 110 109 125 114 141 142 135 172 176 99 105 57 184 237 219 195 203 206 203 208 206 205 202 203 212 215 216
205 207 204 201 201 201 199 198 198 200 204 205 204 202 199 200 201 201 202 203 199 194 189 183 181 180 176 179 195 203 206 209 207 202 193 177 193 196 194 188 183 183 186 198 220 225 216 220 237 228 213 245 222 192 228 211 191 141 149 112 134 135 131 163 141 159 174 160 174 150 34 171 154 221 229 209 192 202 202 202 208 210 209 207 208 208 212 215
203 207 205 200 199 199 198 198 198 198 202 204 204 203 202 201 202 204 203 200 194 186 180 177 178 174 172 187 205 203 205 205 206 207 202 192 193 192 189 189 191 191 191 205 221 221 216 215 224 233 235 267 225 166 203 183 158 166 201 205 145 157 205 175 144 156 165 159 174 155 334 227 218 228 223 206 200 199 197 202 205 212 209 205 209 210 215 215
203 206 203 197 196 196 196 196 196 197 200 202 203 202 201 198 197 200 199 193 184 177 174 173 172 168 171 200 207 205 209 196 199 207 207 205 205 195 188 191 198 199 198 207 216 215 214 215 221 241 256 276 245 161 119 147 162 169 208 248 172 162 187 161 144 159 154 161 181 164 236 249 260 221 200 193 201 195 196 202 203 213 213 207 208 210 218 221
202 201 197 194 193 192 194 195 193 195 198 198 198 197 192 189 190 192 188 180 174 171 169 169 168 164 175 209 209 210 206 191 197 203 206 206 207 201 187 187 193 195 199 205 210 211 212 214 220 237 254 253 226 168 136 148 210 180 175 221 209 179 163 148 161 172 156 161 186 176 233 252 300 132 167 182 192 194 201 205 205 212 213 211 210 210 216 222
204 199 190 190 191 190 192 192 189 190 193 193 192 189 185 184 187 183 175 169 166 167 166 167 166 159 174 203 198 202 197 190 195 195 198 200 205 206 188 183 186 188 195 202 204 207 208 208 212 227 234 212 200 198 164 146 200 215 186 176 197 200 168 166 232 199 160 135 193 218 255 244 201 156 176 183 189 199 208 212 210 209 211 212 212 216 219 222
204 201 191 187 187 188 188 187 186 186 191 192 186 181 179 179 176 166 162 162 163 163 164 166 164 153 221 212 186 190 192 191 188 186 191 195 199 204 189 179 179 185 188 194 200 201 197 194 197 217 217 200 209 212 181 167 193 200 190 218 209 196 168 158 260 225 183 162 208 220 248 259 230 179 188 197 199 202 211 220 218 213 212 212 213 219 223 224
197 194 189 186 184 184 183 183 181 182 186 185 180 176 172 168 158 153 155 156 153 149 151 162 164 157 251 208 192 187 192 190 182 183 185 186 193 196 187 178 175 176 173 176 190 189 185 182 184 205 203 207 215 208 197 177 175 166 176 231 217 195 197 178 169 185 176 195 226 192 223 253 252 200 194 204 199 197 207 219 223 221 216 215 217 220 225 228
193 189 184 181 181 180 181 181 177 178 177 175 176 168 155 147 141 146 155 151 149 149 156 176 177 177 258 196 192 187 191 189 180 180 180 177 183 182 178 177 171 165 158 161 182 181 176 163 178 205 200 203 210 214 217 190 182 176 173 195 193 192 217 158 112 169 162 173 226 205 219 240 247 234 207 198 194 197 204 210 219 224 223 221 223 227 229 232
189 186 181 177 178 179 179 180 178 177 175 172 166 153 143 140 129 142 168 167 166 165 173 180 181 188 38 168 173 172 178 184 179 175 178 176 170 167 168 166 163 163 161 158 171 180 175 162 193 205 199 196 211 224 225 254 256 188 170 192 194 176 195 114 96 196 172 170 216 224 234 246 247 246 231 202 192 198 201 202 211 217 221 221 221 227 231 236
185 180 178 176 176 178 179 178 178 177 176 172 160 151 153 156 152 173 175 178 179 172 168 178 179 191 145 161 168 171 163 166 178 173 175 176 164 160 167 162 157 171 179 155 141 162 174 192 204 201 209 197 209 227 221 327 318 315 161 184 192 171 150 65 83 186 188 106 223 226 233 249 248 248 256 227 199 200 201 200 208 213 218 222 222 226 232 237
184 179 175 174 176 178 176 174 176 176 175 170 162 157 163 162 169 178 166 159 186 189 216 176 178 176 153 167 173 174 162 153 168 172 172 170 164 164 169 170 166 172 178 157 133 144 183 221 202 197 214 206 209 217 165 64 319 343 35 150 186 168 117 65 57 141 138 107 266 276 249 253 257 250 248 241 232 226 214 210 214 215 217 221 223 227 232 235
180 178 174 174 175 175 174 173 176 176 172 170 165 158 168 168 179 172 157 123 173 196 198 173 179 165 147 167 168 165 162 156 161 171 172 166 169 178 172 175 179 164 173 165 151 163 183 214 209 194 192 175 190 189 149 108 336 356 354 102 169 154 122 148 204 148 159 184 15 354 320 274 270 269 255 239 239 239 231 226 226 223 222 223 225 228 232 233
176 175 173 174 173 172 173 172 174 176 173 173 167 153 167 172 161 158 146 110 154 189 172 170 177 164 151 165 167 165 166 165 165 171 172 168 170 178 174 177 176 161 175 173 166 175 172 195 248 180 168 159 151 161 161 171 223 248 230 122 206 157 115 90 151 149 98 319 89 17 323 289 238 235 249 239 232 234 232 227 227 229 228 227 227 228 230 233
174 173 172 172 172 172 170 167 173 178 175 176 170 149 158 159 152 150 134 106 148 131 161 169 173 173 168 166 167 166 162 167 176 176 174 172 170 168 173 181 179 169 177 175 170 176 183 214 214 159 166 162 151 165 179 166 183 232 207 167 13 119 112 104 137 144 87 281 249 117 319 291 249 221 238 230 216 226 225 218 220 225 224 223 224 225 226 229
171 171 171 171 171 169 165 167 175 177 177 179 166 145 154 154 150 150 132 108 168 144 155 172 173 180 181 170 165 163 161 169 177 180 178 175 173 169 171 179 180 179 175 171 173 168 154 124 119 153 146 134 139 181 193 163 161 214 231 191 119 98 109 124 152 154 131 223 257 109 163 270 314 293 267 212 175 216 222 214 222 225 224 224 226 228 228 228
170 171 170 171 170 167 165 170 175 176 179 179 159 146 154 154 153 154 134 87 197 158 153 172 175 182 180 171 168 165 165 159 156 177 181 177 178 181 180 171 154 177 167 147 165 174 99 105 82 142 135 129 149 185 191 163 155 205 282 311 118 114 125 144 153 164 173 128 4 359 167 252 297 287 281 182 158 224 227 222 228 227 228 231 233 236 235 234
170 170 171 171 170 169 168 171 174 176 179 172 152 151 154 156 162 163 135 145 166 147 155 166 169 175 169 171 177 172 129 153 148 175 182 180 182 187 190 174 153 151 154 146 173 214 91 155 172 148 139 158 169 201 190 162 150 224 269 2 104 112 128 145 150 164 103 66 329 268 201 254 273 257 251 203 198 241 237 231 232 226 224 223 223 226 228 230
170 170 172 171 168 168 170 173 175 175 175 167 153 155 158 162 169 162 143 183 144 130 159 157 155 164 160 168 185 185 141 159 157 163 176 181 181 182 191 172 155 110 91 110 143 219 2 170 172 152 157 174 154 17 300 163 154 193 197 72 72 71 71 98 148 142 96 67 246 230 186 199 278 261 219 195 218 237 236 236 236 204 196 192 192 200 211 220
171 171 171 170 167 168 171 175 177 172 169 166 159 159 161 165 164 153 191 189 143 140 150 151 155 160 158 162 185 189 161 158 132 145 167 180 175 182 176 159 150 115 64 55 85 106 83 108 80 108 145 144 125 71 15 96 132 139 140 86 66 48 42 39 44 82 81 264 251 224 184 165 283 269 208 186 223 230 229 229 95 108 141 158 175 188 204 219
172 172 171 170 169 168 169 174 175 170 165 164 161 160 161 160 164 176 173 149 130 135 137 150 155 158 165 168 174 181 168 116 135 149 163 176 173 186 174 154 141 110 82 61 77 79 70 86 67 60 116 135 116 75 23 60 119 114 118 113 79 32 33 27 9 52 101 244 270 311 339 113 228 261 234 201 213 182 169 156 137 131 136 147 165 175 198 241
172 172 170 169 168 168 170 172 172 169 165 162 160 161 159 151 198 199 153 142 152 174 175 166 162 162 172 171 164 170 157 128 158 162 161 167 172 187 185 168 148 131 138 139 104 86 79 86 128 72 151 193 139 94 41 17 31 92 126 125 105 80 57 50 240 112 211 239 262 300 342 296 231 256 262 269 268 209 185 154 140 144 144 148 164 173 207 283
172 170 168 168 167 167 171 171 170 169 165 161 162 165 160 160 190 186 157 163 168 165 165 164 162 160 165 166 163 167 151 142 170 167 159 166 169 188 205 191 172 171 166 154 135 130 102 10 162 110 305 226 186 135 134 204 241 178 150 140 136 135 131 192 201 197 216 254 298 279 292 268 269 275 248 254 260 209 175 163 150 154 157 166 187 212 252 272
170 167 165 168 168 169 170 168 169 169 162 160 165 167 160 173 190 177 166 181 160 150 154 155 153 154 165 171 161 164 154 148 170 164 158 169 171 190 210 196 187 186 137 148 163 167 167 218 196 153 167 194 188 170 157 149 164 193 159 138 155 164 163 182 180 177 194 212 324 299 265 194 221 261 236 236 226 170 174 202 198 198 203 208 229 250 253 244
167 165 163 166 169 169 167 167 169 165 160 162 165 167 172 183 187 176 170 164 145 150 150 150 150 154 170 170 152 165 168 155 172 167 166 180 182 187 194 189 189 186 144 155 182 170 169 203 255 305 143 163 165 273 142 126 144 219 132 116 187 200 144 135 161 167 149 111 305 261 245 217 212 264 268 246 204 178 192 225 226 228 230 228 240 248 226 213
164 164 164 166 169 169 168 170 170 164 163 164 157 177 192 193 176 170 166 146 150 151 143 147 155 159 167 164 157 172 186 152 171 174 178 189 194 190 191 189 187 190 174 158 155 153 163 213 319 350 25 75 123 306 355 116 151 178 111 154 201 165 115 112 173 27 102 155 237 188 247 279 287 294 279 245 202 180 182 229 226 218 221 220 216 206 195 199
163 164 166 168 170 170 171 172 168 166 170 173 171 185 193 189 173 157 139 126 136 144 143 152 167 168 169 172 171 173 165 154 174 183 178 184 199 193 193 193 185 193 192 159 164 196 147 115 336 17 53 6 349 35 41 35 88 117 153 192 174 88 85 119 148 21 79 243 246 176 211 264 264 275 298 262 178 195 199 213 208 191 197 209 197 185 190 194
162 163 168 173 172 170 172 172 168 168 175 187 188 191 179 155 182 144 136 129 136 148 155 161 169 178 176 170 170 171 163 162 179 184 173 180 203 190 187 190 184 192 190 143 147 185 122 105 350 357 35 316 348 70 98 360 8 120 174 182 122 116 196 151 166 182 167 213 264 237 218 226 206 220 282 235 201 209 201 197 189 184 199 211 197 182 188 190
159 159 169 178 174 170 172 170 167 171 178 194 196 197 164 139 137 145 142 138 141 156 166 166 163 176 177 165 161 167 171 174 174 174 176 184 206 189 183 181 180 188 183 139 147 165 110 119 170 332 331 233 357 147 175 200 318 25 74 75 57 132 169 165 183 180 148 181 246 275 236 236 230 210 207 222 217 186 174 184 186 185 197 203 189 180 184 188
158 151 169 181 175 171 170 166 166 174 190 196 191 180 152 137 124 149 146 145 147 162 172 170 168 170 167 164 160 163 174 173 166 180 197 175 174 198 190 180 169 176 167 117 117 139 86 97 138 357 330 186 186 219 186 177 180 159 131 152 166 123 117 117 238 176 135 167 218 244 257 260 247 213 197 212 211 156 152 163 171 166 165 172 174 176 182 186
158 140 165 179 177 169 163 160 169 187 198 195 185 168 157 137 128 146 145 147 148 145 164 164 170 170 158 162 163 161 168 165 167 187 196 171 174 233 222 182 159 162 157 112 106 144 94 93 122 141 194 186 224 305 151 164 178 179 178 178 180 169 132 124 243 214 154 171 189 191 251 273 258 265 161 175 173 150 153 159 162 160 160 168 172 178 186 188
157 119 166 177 176 165 159 159 188 192 192 182 157 130 145 137 142 153 134 138 137 90 135 156 166 168 158 164 163 159 165 167 175 185 189 185 182 200 221 171 153 159 159 131 139 151 93 92 107 123 163 181 302 324 124 149 204 210 237 202 176 172 160 162 198 203 169 193 123 132 263 274 259 288 56 119 144 152 165 167 162 160 165 173 174 181 190 193
139 105 157 174 171 163 163 169 189 189 195 152 127 102 132 136 140 150 145 144 136 99 125 147 161 167 168 165 157 161 170 171 182 185 179 175 169 190 198 164 150 155 151 129 157 150 106 102 106 92 52 354 305 281 71 31 141 228 244 214 183 192 190 171 171 159 152 184 152 135 253 267 266 256 91 103 131 154 180 184 170 160 159 168 173 179 188 192
113 110 144 169 167 167 175 186 180 186 182 154 135 112 134 128 136 154 162 161 150 148 130 128 156 160 160 154 150 166 174 172 187 189 171 161 167 260 185 161 153 155 164 171 176 168 156 135 117 114 98 22 348 331 291 244 207 223 245 200 188 185 158 124 109 128 155 199 168 155 236 256 269 287 103 124 144 172 208 202 183 164 156 164 170 169 171 174
114 109 134 160 168 176 195 197 178 181 167 156 151 151 141 89 111 155 157 152 142 144 132 109 138 128 114 131 131 163 181 175 172 178 156 142 155 342 156 161 163 165 176 175 165 158 164 159 143 150 163 178 195 209 218 206 182 229 264 182 187 177 159 163 162 126 198 219 169 161 235 248 254 83 120 213 175 195 225 208 192 176 165 167 169 164 161 158
132 116 123 156 178 200 242 320 197 180 168 163 159 162 156 134 90 128 142 148 133 129 122 101 127 116 114 143 134 165 189 180 104 154 152 123 130 336 66 148 162 160 154 162 158 149 144 180 174 184 194 196 200 191 133 113 132 198 214 194 190 194 181 169 139 154 198 207 183 208 236 250 256 213 194 218 201 203 213 201 196 189 175 171 170 170 168 164
141 150 147 156 182 209 233 262 233 194 178 173 167 169 165 151 137 120 112 157 175 142 103 70 147 146 156 162 151 169 185 162 100 150 155 122 103 48 58 67 101 122 128 155 157 144 112 201 193 199 212 215 204 153 134 135 161 198 207 199 193 198 186 168 185 207 197 180 224 232 225 242 252 222 190 209 211 212 217 200 196 192 181 176 177 178 177 174
125 152 166 165 169 200 209 200 198 190 179 176 168 163 166 157 154 166 145 53 174 167 123 117 180 179 169 165 159 161 168 152 138 164 150 121 113 99 52 26 43 80 96 149 157 134 120 196 205 199 218 237 227 151 153 158 175 191 195 199 197 192 186 190 212 220 197 182 227 229 214 227 244 227 196 201 196 201 214 205 197 191 183 184 186 185 183 181
107 111 151 165 172 194 162 143 166 183 178 176 172 168 172 170 169 170 144 113 171 201 184 171 189 188 174 169 161 155 166 169 174 178 139 124 137 125 98 40 46 14 38 116 152 82 116 192 203 174 214 248 216 166 164 164 172 186 194 198 194 191 195 203 217 224 213 211 231 234 226 233 244 232 205 204 201 203 209 204 198 195 192 192 192 190 188 185
122 118 145 151 121 148 140 121 143 175 176 178 182 181 180 181 179 170 153 163 173 190 199 188 185 181 176 176 174 177 188 182 170 165 141 124 142 155 154 163 151 147 105 115 144 237 150 195 182 147 200 253 206 194 199 173 164 187 200 195 186 191 202 211 221 225 221 226 241 250 259 261 253 234 213 214 205 194 188 188 193 197 197 194 192 192 192 188
122 129 143 138 91 146 153 142 156 168 174 186 188 181 183 188 181 167 166 188 181 178 188 183 172 172 176 185 193 200 193 182 166 163 161 157 170 179 176 163 152 148 170 164 153 162 172 199 158 135 178 236 207 201 203 150 132 190 212 196 189 192 203 211 218 220 213 222 243 255 261 256 249 213 213 226 199 180 182 185 189 194 197 197 195 193 194 193
114 124 132 126 95 147 155 148 162 174 180 188 184 176 180 184 174 162 164 198 196 185 183 173 155 159 179 194 204 205 184 178 176 172 170 168 172 172 164 160 158 156 161 157 142 160 160 157 149 147 178 248 244 184 159 103 95 227 225 206 199 200 203 207 219 224 212 207 222 232 236 244 243 133 204 236 191 186 198 188 185 194 197 197 199 198 196 195